Dewpoint
53 54 54 54 53 54 54 53 55 55 55 57 56 57 58 58 59 57 59 58 59 59 58 59 58 58 58 58 58 58 54 38 32 26 27 36 47 55 57 58 58 58 56 51 35 30 26 24 19 18 16 21 26 26 23 22 28 32 22 17 15 14 15 16 17 19 22 25 28 31 32 30 28 31 31 35 31 34 34 33 35 34 32 32 32 35 35 33
53 54 54 54 55 54 55 55 55 56 57 57 58 58 59 59 59 59 58 59 60 59 59 57 58 59 59 59 58 58 48 38 25 23 25 47 56 56 57 57 58 57 54 41 36 33 27 15 15 14 17 22 22 24 26 26 23 23 21 17 15 17 17 18 18 22 23 25 29 30 31 30 30 26 29 28 30 31 31 31 35 35 34 33 35 36 37 32
56 55 55 56 55 56 54 56 57 56 57 57 58 59 59 59 59 59 60 60 59 59 58 57 59 58 58 59 57 56 46 34 23 22 24 53 54 55 56 57 57 56 49 44 43 36 28 28 26 18 19 18 18 23 21 21 26 20 17 16 17 19 21 21 22 23 25 25 27 29 31 27 30 26 33 31 29 31 28 28 30 31 32 33 34 35 37 36
56 56 57 56 56 56 57 56 57 57 57 58 59 59 59 59 59 59 60 60 60 58 58 58 58 59 59 58 59 44 45 37 22 23 26 53 53 55 55 55 57 54 48 46 44 35 36 31 17 21 27 21 22 18 18 22 22 19 19 17 18 20 22 24 27 27 27 28 26 27 29 27 30 31 32 31 27 28 31 32 30 31 31 33 35 34 36 34
57 57 58 57 57 57 57 58 57 58 58 58 59 58 59 58 60 61 60 59 59 59 58 59 59 60 58 58 57 47 35 28 24 24 27 53 53 53 53 55 56 49 46 43 42 38 33 21 23 29 31 26 31 26 23 18 20 23 17 16 16 19 22 24 26 26 26 27 26 26 26 27 32 30 32 30 25 24 28 32 35 35 35 36 32 33 36 35
57 58 58 57 58 58 58 58 58 58 58 59 59 59 59 59 60 59 60 59 59 60 59 60 60 59 58 57 51 43 31 19 27 23 47 53 51 52 52 53 55 48 48 42 37 24 23 26 26 32 28 24 23 21 22 21 29 16 18 15 17 20 24 26 26 26 27 27 28 28 30 32 31 30 32 32 29 31 36 34 35 36 37 37 36 37 35 34
58 57 57 57 58 58 58 59 59 59 59 60 60 60 59 59 58 58 59 60 60 60 60 60 59 57 57 56 50 26 23 23 24 25 45 52 51 48 50 47 50 44 49 36 19 18 26 24 24 28 26 26 24 22 23 22 23 19 16 17 20 23 24 25 25 25 26 26 26 27 32 28 30 27 30 29 31 34 36 38 37 37 37 37 34 36 34 35
57 58 57 57 57 57 57 57 58 59 59 59 59 60 60 58 59 58 58 60 60 61 60 59 58 57 53 50 39 28 27 24 22 27 43 50 37 35 40 34 40 39 29 27 31 28 30 29 27 34 30 25 28 23 27 20 25 22 21 23 22 24 24 24 24 24 25 25 26 25 25 28 29 27 30 28 30 30 30 35 35 36 36 35 35 34 34 33
57 57 57 57 57 57 57 57 58 58 59 60 60 59 60 58 58 59 59 60 60 61 60 59 58 55 54 49 36 27 23 23 25 25 28 30 29 29 30 26 29 25 28 28 31 30 28 31 33 32 26 25 28 26 27 21 20 24 23 25 23 23 23 23 23 23 24 24 24 24 26 26 26 27 26 27 28 28 29 32 33 33 33 32 32 32 32 33
57 57 57 57 57 58 58 58 59 59 59 59 59 60 60 59 59 59 59 59 59 61 60 59 59 50 44 37 33 21 24 24 25 26 27 29 29 28 27 27 26 27 27 29 29 28 29 29 28 29 30 29 33 28 29 24 21 28 27 27 24 23 23 23 23 23 24 24 24 24 25 26 28 25 25 28 29 31 30 29 28 29 26 29 32 32 31 31
57 56 57 57 57 58 58 59 58 58 58 58 59 60 61 60 59 59 60 59 59 59 59 59 57 40 30 27 24 21 25 24 26 25 27 32 28 26 26 27 29 27 30 32 32 32 31 30 31 29 33 28 28 27 26 27 29 27 27 28 26 23 23 23 23 23 25 24 26 25 25 27 28 30 26 26 29 29 29 28 30 25 25 25 27 29 30 29
57 57 57 57 58 57 59 58 58 58 58 60 60 61 59 58 58 58 59 59 58 59 59 58 55 48 25 25 21 24 24 25 29 25 27 30 28 28 33 28 32 32 32 32 33 36 32 35 40 38 24 32 23 26 27 31 28 28 28 24 27 28 24 23 23 23 25 24 26 26 28 28 28 27 28 28 29 30 30 28 29 26 26 26 26 27 26 25
56 56 56 57 57 57 57 58 58 58 58 58 57 58 57 57 57 57 58 56 55 58 57 57 51 53 42 25 21 23 24 25 32 28 28 29 28 26 26 27 30 32 33 32 33 37 39 37 31 30 35 29 29 24 28 32 31 32 28 26 26 25 23 22 24 24 23 24 26 30 18 24 25 26 27 28 29 29 31 28 27 28 27 27 27 26 24 26
56 55 56 57 57 57 57 57 57 57 57 57 56 55 55 55 56 57 58 57 58 57 58 56 52 45 33 21 25 24 24 29 23 25 28 28 25 25 26 27 27 28 30 31 33 34 35 34 34 36 40 33 28 34 28 29 34 25 27 29 22 21 18 22 23 23 25 25 25 30 17 24 25 27 28 30 30 29 28 28 27 29 28 27 28 25 23 24
55 55 56 57 57 58 58 57 56 56 55 56 57 56 56 53 54 55 57 56 56 57 58 56 51 46 30 23 24 24 44 26 22 22 27 27 28 26 25 26 26 27 29 30 30 33 33 36 34 34 31 36 33 30 27 28 30 28 25 22 23 23 20 23 25 23 25 26 29 30 21 26 25 26 28 29 30 30 28 28 27 27 27 28 27 23 23 23
55 55 57 56 56 56 56 55 55 56 56 55 55 56 56 56 55 55 55 54 55 56 52 42 41 30 25 26 21 35 23 21 21 22 25 27 28 26 27 26 27 27 28 29 31 32 33 33 32 34 36 37 34 28 27 27 25 27 25 17 18 20 20 23 27 34 32 29 31 29 23 27 25 26 27 28 30 29 28 28 28 28 28 28 24 25 24 24
55 55 57 55 55 55 56 55 55 55 55 56 56 55 55 56 53 53 56 56 52 55 31 34 34 40 24 30 24 20 20 22 24 23 25 26 29 28 27 26 26 25 28 29 31 39 38 34 34 32 32 29 30 28 25 24 20 19 23 19 20 19 21 20 30 32 34 31 28 31 26 27 27 26 28 28 31 31 29 29 29 28 28 29 25 24 24 25
55 55 56 55 55 55 55 55 55 54 55 56 55 51 50 53 55 46 44 50 54 48 49 37 39 31 27 23 20 19 21 23 23 24 26 27 28 26 28 28 27 26 29 35 30 30 34 27 31 23 25 26 28 29 23 16 21 22 19 17 18 21 22 23 25 29 32 33 29 28 26 27 26 26 27 28 30 30 29 29 29 28 29 29 26 24 24 25
55 56 55 56 54 54 55 55 55 54 54 56 56 56 55 55 53 34 35 36 33 27 25 26 27 21 21 22 21 23 24 24 24 24 24 26 27 28 30 29 29 29 31 31 28 31 31 28 28 24 23 24 24 26 25 22 26 24 24 18 19 19 20 23 28 32 29 26 25 28 26 27 27 26 27 27 29 29 29 30 29 29 29 28 26 24 24 25
55 55 55 54 54 54 54 55 55 54 55 52 54 54 47 36 34 31 34 35 27 28 30 31 37 31 29 21 21 24 26 25 22 23 25 27 30 32 30 34 36 32 29 25 29 28 31 25 24 19 20 24 26 27 29 30 29 27 24 21 20 21 23 28 29 31 30 24 25 28 28 28 28 26 27 27 28 29 29 29 29 30 29 29 26 25 25 25
56 55 55 54 54 53 55 55 54 54 54 51 51 44 33 39 32 24 31 35 38 40 33 32 34 29 25 21 23 26 22 22 23 23 25 29 35 33 30 36 32 29 31 31 28 31 31 25 25 24 25 24 24 28 31 30 30 24 22 20 20 22 20 27 29 32 31 23 23 27 24 25 27 27 27 27 28 27 29 30 30 29 29 29 27 26 26 25
55 55 55 54 53 54 55 55 54 54 55 50 43 37 39 41 45 40 33 23 32 37 36 32 31 26 24 23 25 28 24 22 22 23 27 30 30 29 32 30 29 28 31 33 29 26 25 25 24 27 28 31 29 30 30 28 25 24 19 19 20 22 25 28 29 30 30 26 23 25 23 21 23 26 27 27 28 29 30 30 30 29 29 29 28 26 26 24
55 55 55 54 55 55 54 55 53 55 49 49 41 39 38 42 41 42 39 28 29 35 33 30 24 27 25 25 26 29 22 23 25 24 27 30 33 31 33 28 29 29 30 30 24 23 23 25 27 29 30 29 26 28 27 26 25 23 23 23 19 23 18 19 25 29 30 24 22 24 23 23 26 27 27 27 27 30 31 32 32 32 29 29 29 26 25 24
55 55 55 54 54 54 55 54 53 45 41 44 44 42 43 43 43 46 41 26 22 29 33 32 31 29 28 26 27 31 26 29 29 25 29 32 32 32 34 31 29 29 28 29 27 25 24 26 27 31 30 29 25 26 25 24 19 23 23 19 19 21 22 18 22 27 24 24 25 22 22 22 26 26 26 27 30 31 32 33 32 31 31 31 32 27 27 26
54 55 54 55 54 54 54 52 41 41 44 45 41 42 40 43 43 44 32 25 22 26 39 37 35 27 25 25 36 32 39 31 30 30 31 31 31 36 32 33 31 26 28 29 28 26 25 27 31 32 30 28 25 23 24 24 20 21 23 21 21 23 21 23 26 23 21 21 26 24 18 17 21 26 26 28 29 30 31 31 31 31 30 30 30 28 27 29
54 55 54 54 54 53 55 43 37 43 40 38 41 42 43 43 42 43 37 27 12 16 32 24 31 22 25 29 32 39 36 27 30 28 35 32 34 34 33 30 31 23 27 27 25 27 27 28 30 28 29 26 25 23 23 24 19 19 21 24 23 19 20 21 20 20 16 13 19 25 18 17 20 23 25 27 27 28 31 31 32 31 31 30 29 26 25 25
54 55 54 54 54 54 42 39 48 46 47 45 42 43 41 41 44 48 29 24 17 16 17 28 32 23 33 29 33 34 21 23 28 32 32 35 33 37 30 27 31 33 34 28 24 19 31 26 26 27 26 25 22 22 24 22 21 19 21 23 20 20 18 19 18 17 19 23 24 28 20 16 16 20 23 24 27 29 29 31 32 32 32 30 30 28 27 27
55 55 52 53 54 52 43 45 48 40 46 45 43 43 43 43 46 43 29 6 1 25 17 25 25 30 32 33 30 28 27 31 25 26 35 36 34 33 32 28 24 24 31 24 17 21 24 24 26 25 24 24 22 23 26 25 21 21 24 24 21 22 21 24 18 18 19 19 19 22 24 15 14 20 22 24 24 24 24 28 31 32 33 32 30 29 28 28
55 53 50 53 54 53 47 49 46 40 43 44 43 44 46 44 43 31 26 5 10 27 30 29 37 29 30 35 25 32 31 31 27 29 36 36 30 31 24 29 31 26 29 26 20 21 26 25 26 27 24 22 25 26 26 25 25 26 25 22 22 25 24 24 20 19 19 15 12 18 21 13 17 20 22 22 23 23 23 25 28 31 33 32 31 30 29 28
54 51 51 54 51 43 43 42 41 43 44 45 45 44 45 43 31 27 11 -4 20 10 29 28 26 20 33 26 25 26 26 28 32 32 34 27 26 33 35 35 30 27 24 29 26 24 26 34 32 26 24 25 26 27 26 27 27 28 26 25 24 23 22 22 22 20 17 11 16 20 21 18 15 19 21 20 22 23 23 27 29 31 32 32 32 30 28 28
53 53 50 49 42 42 45 40 43 43 43 45 45 46 43 32 28 16 -2 3 31 25 27 23 22 32 28 22 16 24 27 28 25 32 27 30 24 27 29 27 30 27 25 25 25 27 28 28 25 26 30 30 28 28 32 29 30 26 24 23 22 22 21 20 18 19 12 9 16 19 20 21 13 17 21 25 23 23 25 26 27 29 32 31 31 31 28 28
51 52 49 45 46 47 45 34 43 42 44 45 47 42 33 22 23 13 4 27 18 21 13 14 23 26 25 27 20 21 21 25 24 27 26 25 23 21 22 19 21 22 21 19 17 25 23 24 25 29 31 27 24 24 22 26 25 24 23 22 18 11 16 10 15 12 10 10 18 18 20 18 17 20 24 23 25 27 26 29 29 30 31 31 31 29 29 28
51 51 50 43 46 44 42 43 43 43 45 46 43 35 28 21 3 14 14 19 6 21 17 20 20 26 24 22 18 22 26 19 26 23 27 25 26 23 24 23 24 20 12 20 18 19 22 24 27 28 25 27 24 20 19 19 21 22 21 19 13 8 6 6 7 13 10 18 20 19 19 18 19 22 23 23 27 28 28 29 30 31 31 31 31 29 28 28
51 49 42 43 42 44 44 44 45 45 47 43 31 27 19 13 -1 25 10 17 13 24 25 24 23 28 23 14 17 21 17 22 23 20 25 18 23 21 23 23 24 22 21 21 14 16 15 17 19 25 19 25 25 21 21 21 21 22 24 21 15 13 10 9 10 9 9 16 19 21 13 12 17 21 25 26 28 29 30 30 31 31 31 31 30 29 28 28
50 48 44 45 44 43 43 45 45 45 44 30 23 26 14 5 14 12 15 18 22 23 23 26 24 24 18 22 22 23 16 13 23 21 21 18 17 21 21 20 23 23 21 20 14 16 18 15 19 27 23 24 23 24 25 24 23 24 23 25 21 14 18 12 12 12 10 14 17 16 15 18 19 26 28 29 29 30 31 32 31 33 33 30 28 28 28 28
51 49 48 42 41 42 44 46 44 44 41 21 19 18 14 15 9 21 21 23 24 16 19 24 22 20 15 21 22 16 23 14 19 19 16 20 20 21 23 23 21 23 18 17 14 12 20 16 23 30 27 20 21 24 23 24 17 21 23 17 19 22 19 13 18 21 18 13 15 15 20 22 25 26 27 30 30 30 31 32 31 32 33 32 30 29 28 28
45 45 35 39 38 43 43 44 45 44 29 20 20 10 18 18 20 23 30 20 22 22 21 10 16 14 11 11 12 16 14 22 18 15 13 19 13 20 23 24 25 22 21 22 18 17 12 15 23 26 23 26 25 24 26 26 24 22 18 21 25 24 21 18 12 10 12 10 15 17 16 19 20 16 26 26 26 27 28 30 31 32 32 32 30 28 29 28
46 39 38 35 36 43 43 42 44 43 26 19 23 26 22 22 26 26 25 24 25 25 18 14 7 21 12 14 12 11 18 19 17 17 15 20 10 20 22 22 25 22 21 20 20 19 20 16 23 24 24 28 28 23 24 26 28 24 21 22 18 14 15 19 12 10 10 8 12 17 15 19 18 21 23 25 25 25 26 29 31 31 32 32 27 27 28 27
43 40 27 31 44 43 41 40 43 29 23 25 22 23 20 25 25 24 26 26 25 22 12 14 13 12 16 12 11 15 15 14 13 15 16 13 14 23 19 22 22 24 25 25 21 22 22 11 20 24 25 26 21 24 18 22 26 28 28 23 22 22 14 14 13 10 12 13 13 14 14 17 18 21 22 25 25 25 26 29 31 32 32 32 26 28 28 28
41 34 18 39 42 42 41 41 28 24 23 20 21 18 24 24 27 26 22 26 25 18 13 13 21 15 16 13 13 10 16 14 15 14 17 17 17 25 23 26 20 22 26 26 23 23 19 18 10 20 26 24 20 22 19 20 16 19 21 19 21 18 21 20 17 15 15 9 9 10 13 17 20 25 25 25 25 26 28 30 31 32 32 29 26 28 28 28
38 37 35 44 43 42 39 28 24 25 24 22 24 22 27 21 26 26 29 30 30 27 19 19 19 13 17 16 15 19 16 17 19 15 17 18 17 14 25 25 27 24 25 24 23 23 17 19 13 19 19 21 23 22 20 20 21 21 21 17 20 16 14 13 15 15 16 15 13 13 15 19 22 26 26 26 26 28 30 31 31 32 33 27 26 27 28 28
29 20 19 43 44 42 33 24 25 26 27 23 17 26 21 30 26 26 27 28 27 23 25 22 23 23 24 21 20 21 20 16 20 17 19 11 22 17 24 28 29 26 20 18 21 25 20 20 16 16 17 15 22 19 20 23 23 23 22 19 20 18 17 12 12 14 13 15 15 15 14 20 26 27 26 26 28 29 30 31 32 33 34 26 26 27 28 28
25 18 31 44 46 36 23 23 27 28 22 22 27 24 26 23 23 23 25 26 23 26 26 24 22 21 21 24 23 20 22 14 20 11 18 20 22 26 29 29 29 29 23 20 24 23 27 16 13 19 22 22 21 22 21 22 23 20 21 21 20 17 18 19 14 13 14 14 14 13 15 20 24 26 27 28 29 30 32 32 32 33 32 26 26 26 27 27
29 20 24 38 40 39 29 16 19 18 20 25 24 21 27 28 27 26 25 28 25 20 25 25 27 28 22 26 23 19 23 11 20 20 16 19 17 30 29 30 27 23 24 21 18 23 14 18 14 12 8 12 16 19 20 22 21 20 18 19 20 19 18 16 17 15 15 14 18 15 14 18 22 28 28 26 26 25 26 27 31 31 31 28 25 26 27 28
22 28 32 36 30 29 20 26 23 26 23 20 23 21 25 24 28 27 27 27 27 22 22 23 27 27 23 26 24 22 24 16 12 17 17 16 16 27 27 28 26 25 28 29 32 27 17 19 15 3 -1 1 -0 1 4 8 15 21 22 21 20 18 16 14 15 16 14 17 19 15 17 21 21 22 23 24 24 24 25 27 30 31 31 25 27 27 28 28
19 9 20 24 27 25 25 27 27 25 24 19 16 17 23 21 26 29 28 27 25 25 24 26 25 25 26 26 24 23 24 25 14 14 16 16 18 28 29 27 27 28 29 30 28 25 18 20 19 15 11 9 11 12 16 20 17 11 14 18 17 20 18 16 13 14 17 16 17 21 21 21 22 22 22 22 23 24 24 27 30 31 30 28 28 28 29 28
22 20 16 22 27 25 23 27 26 26 20 24 17 16 17 24 22 25 30 24 27 28 27 27 25 21 19 24 24 23 24 24 20 13 12 14 16 22 28 26 27 28 31 29 28 20 17 14 18 19 17 18 17 16 17 20 17 17 16 16 16 19 20 18 19 17 20 15 18 21 23 19 21 21 21 22 23 24 25 27 30 31 28 28 29 29 31 26
20 13 23 22 19 12 26 17 27 25 25 26 19 24 20 20 22 12 23 26 27 25 26 26 23 27 24 24 23 15 21 25 20 12 13 12 14 18 19 27 24 28 28 24 22 17 13 10 12 14 13 19 20 20 18 19 18 17 16 16 17 19 19 18 18 21 22 16 17 19 21 21 21 21 22 23 23 24 26 28 31 32 28 28 28 28 27 26
20 19 20 23 17 16 22 21 29 24 23 22 21 24 19 18 16 23 22 21 25 24 25 14 21 25 26 26 24 17 22 6 8 15 11 14 14 15 13 18 27 26 24 19 18 18 13 14 14 14 17 17 18 19 20 20 20 20 18 19 19 20 21 21 21 20 21 20 21 21 22 22 22 23 23 24 25 27 28 31 32 32 31 28 29 27 27 26
16 21 13 26 24 19 19 21 23 26 20 23 12 18 23 22 20 23 20 21 14 21 25 22 25 26 25 26 24 14 16 12 7 9 14 11 15 14 12 15 18 20 23 19 17 19 10 16 19 14 14 16 17 20 20 22 20 19 20 21 21 22 22 22 21 21 21 22 23 23 23 23 24 25 26 27 28 30 31 31 32 32 30 29 28 27 26 26
21 26 26 26 15 15 22 19 17 23 18 22 20 17 25 26 26 24 23 26 23 21 22 17 24 27 25 26 26 25 26 25 19 17 19 15 13 21 14 15 20 15 17 17 16 16 11 15 15 14 12 13 17 20 21 19 21 21 21 22 22 21 19 21 20 23 21 22 23 20 20 22 22 27 29 30 30 30 30 31 32 32 30 28 27 27 26 26
23 23 27 30 22 17 20 21 23 20 19 23 25 21 22 23 28 23 11 26 28 29 27 28 28 25 26 21 21 25 28 27 26 25 25 23 22 22 22 22 20 20 16 15 17 15 13 14 12 13 11 13 17 20 17 19 17 16 17 21 23 23 22 23 24 24 25 23 19 20 21 19 22 27 27 27 28 30 31 32 32 30 30 28 27 27 27 26